Starlink 11516

operational
NORAD ID: 62522 Int'l Des: 2025-004 Owner: SPXS Country: US Constellation: starlink
LEOCIRCULAR

关于 Starlink 11516

正在加载描述...

实时位置

正在加载3D地球...

即将过境

高度历史

Altitude vs Time

uPlot chart will show altitude changes over time

两行轨道根数

1 62522U 25004M 26034.06216157 .00364833 00000-0 27205-2 0 9996
2 62522 42.9990 279.3538 0002459 306.2565 53.8075 15.70868751 61762
Epoch: Feb 3, 2026 • Age: 35 hours

当前状态

高度 364.9 km
速度 7.69 km/s
星下点 -41.84°S, 120.51°W
发射日期 Jan 8, 2025
运行时间 1 years
类型 internet

技术详情

分类 Payload
质量 960.00 kg
干质量 910.00 kg
总质量 960.00 kg
长度 0.30 m
直径 4.10 m
跨度 29.00 m
形状 Box + pan
制造商 SPXS
平台类型 Starlink V2MD
阶段状态 In Orbit
所有者/国家 SPXS/US

大型星座

Loading constellations...